Flag Weather past 2 weeks in Red Deer, Alberta, Canada

Now
37 °F

Overcast.


Feels Like: 29 °F
Forecast: 36 / 57 °F
Wind: 14 mph from South

Location: Red Deer

Current Time: Oct 31, 2014 at 2:43:26 AM

Latest Report: Oct 31, 2014 at 2:00 AM


Visibility: 15 mi

Pressure: 29.84 "Hg

Humidity: 87%

Dew point: 34 °F

Location of Red DeerLocation

Historic Weather in Red Deer — Graph

°F

Red Deer temperature yesterday

Maximum temperature yesterday: 37 °F (at 9:00 PM)
Minimum temperature yesterday: 25 °F (at 12:00 AM)
Average temperature yesterday: 30 °F

Past Weeks' High & Low Weather Summary

 TemperatureHumidityPressure
High72 °F (Oct 20, 2:00 PM)100% (Oct 16, 4:00 AM)30.34 "Hg (Oct 16, 4:00 AM)
Low19 °F (Oct 28, 12:00 AM)20% (Oct 23, 3:00 PM)29.44 "Hg (Oct 26, 3:00 AM)
Average40 °F71%29.87 "Hg
* Reported Oct 16 1:00 AM — Oct 31 1:00 AM, Red Deer, Weather by CustomWeather, © 2014

Note: Actual official high and low records may vary slightly from our data, if they occured in-between our weather recording intervals... More about our weather records

Advertising

Red Deer weather history for previous 24 hours

 ConditionsComfort  
Time TempWeatherWind HumidityBarometerVisibility
1:00 AM
Oct 31
39 °FPassing clouds.16 mph81%29.88 "Hg15 mi
12:00 AM37 °FOvercast.18 mph87%29.92 "Hg15 mi
11:00 PM
Oct 30
37 °FLow clouds.17 mph87%29.95 "Hg10 mi
10:00 PM37 °FLow clouds.18 mph93%30.00 "Hg8 mi
9:00 PM37 °FFog.21 mph93%30.04 "Hg6 mi
8:00 PM34 °FFog.20 mph100%30.09 "Hg3 mi
7:00 PM34 °FFog.20 mph93%30.12 "Hg4 mi
6:00 PM32 °FIce fog.21 mph93%30.14 "Hg4 mi
5:00 PM32 °FIce fog.24 mph93%30.16 "Hg4 mi
4:00 PM32 °FIce fog.23 mph93%30.19 "Hg4 mi
3:00 PM32 °FIce fog.23 mph93%30.22 "Hg4 mi
2:00 PM32 °FIce fog.18 mph93%30.24 "Hg3 mi
1:00 PM32 °FIce fog.17 mph93%30.27 "Hg3 mi
12:00 PM30 °FIce fog.17 mph100%30.30 "Hg3 mi
11:00 AM28 °FIce fog.18 mph100%30.32 "Hg2 mi
10:00 AM27 °FIce fog.13 mph100%30.33 "Hg1 mi
9:00 AM27 °FIce fog.12 mph100%30.34 "Hg1 mi
8:00 AM27 °FIce fog.8 mph100%30.33 "Hg1 mi
7:00 AM27 °FIce fog.13 mph100%30.33 "Hg1 mi
6:00 AM28 °FFog.9 mph100%30.32 "Hg0 mi
5:00 AM27 °FFog.5 mph100%30.32 "Hg1 mi
4:00 AM27 °FFog.6 mph93%30.30 "Hg1 mi
3:47 AM27 °FIce fog.7 mph100%30.30 "Hg1 mi
3:00 AM27 °FFog.6 mph93%30.30 "Hg1 mi
2:00 AM27 °FFog.3 mph100%30.28 "Hg0 mi
Weather by CustomWeather, © 2014

See weather overviewHow to use our weather pages